Previsão horária em Almazar

Hoje, 20 Janeiro, Quarta-feira

Tempo Temperatura Precipitação Vento Pressão Humidade
00:00 +9°C° 0.2 mm 2 m/s 738 mmHg 62%
01:00 +9°C° 0.2 mm 2 m/s 738 mmHg 65%
02:00 +8°C° 0.2 mm 3 m/s 738 mmHg 68%
03:00 +8°C° 0 mm 3 m/s 739 mmHg 67%
04:00 +8°C° 0 mm 3 m/s 739 mmHg 65%
05:00 +8°C° 0 mm 3 m/s 740 mmHg 64%
06:00 +8°C° 0 mm 3 m/s 740 mmHg 60%
07:00 +8°C° 0 mm 3 m/s 740 mmHg 57%
08:00 +9°C° 0 mm 3 m/s 741 mmHg 53%
09:00 +10°C° 0 mm 4 m/s 740 mmHg 52%
10:00 +10°C° 0 mm 5 m/s 740 mmHg 51%
11:00 +11°C° 0 mm 6 m/s 740 mmHg 50%
12:00 +12°C° 0 mm 7 m/s 739 mmHg 49%
13:00 +12°C° 0 mm 8 m/s 738 mmHg 48%
14:00 +13°C° 0 mm 9 m/s 737 mmHg 47%
15:00 +12°C° 0 mm 9 m/s 737 mmHg 50%
16:00 +11°C° 0 mm 9 m/s 737 mmHg 52%
17:00 +11°C° 0 mm 9 m/s 737 mmHg 55%
18:00 +10°C° 0 mm 8 m/s 737 mmHg 57%
19:00 +10°C° 0 mm 8 m/s 737 mmHg 59%
20:00 +9°C° 0 mm 8 m/s 737 mmHg 61%
21:00 +9°C° 0 mm 7 m/s 737 mmHg 59%
22:00 +9°C° 0 mm 7 m/s 736 mmHg 57%
23:00 +9°C° 0 mm 7 m/s 736 mmHg 55%

Amanhã, 21 Janeiro, Quinta-feira

Tempo Temperatura Precipitação Vento Pressão Humidade
00:00 +9°C° 0 mm 7 m/s 735 mmHg 54%
01:00 +8°C° 0 mm 7 m/s 735 mmHg 53%
02:00 +8°C° 0 mm 7 m/s 735 mmHg 52%
03:00 +8°C° 0 mm 7 m/s 734 mmHg 51%
04:00 +7°C° 0 mm 8 m/s 733 mmHg 50%
05:00 +7°C° 0 mm 8 m/s 733 mmHg 49%
06:00 +7°C° 0 mm 9 m/s 732 mmHg 48%
07:00 +6°C° 0 mm 9 m/s 732 mmHg 47%
08:00 +6°C° 0 mm 9 m/s 731 mmHg 46%
09:00 +7°C° 0 mm 10 m/s 731 mmHg 41%
10:00 +9°C° 0 mm 10 m/s 730 mmHg 37%
11:00 +11°C° 0 mm 10 m/s 730 mmHg 32%
12:00 +12°C° 0 mm 10 m/s 729 mmHg 30%
13:00 +13°C° 0 mm 10 m/s 728 mmHg 28%
14:00 +15°C° 0 mm 9 m/s 727 mmHg 25%
15:00 +13°C° 0 mm 9 m/s 727 mmHg 25%
16:00 +12°C° 0 mm 9 m/s 727 mmHg 26%
17:00 +12°C° 0 mm 9 m/s 726 mmHg 26%
18:00 +11°C° 0 mm 8 m/s 727 mmHg 28%
19:00 +10°C° 0 mm 7 m/s 728 mmHg 31%
20:00 +10°C° 0 mm 7 m/s 728 mmHg 33%
21:00 +9°C° 0 mm 5 m/s 728 mmHg 35%
22:00 +10°C° 0 mm 4 m/s 728 mmHg 36%
23:00 +10°C° 0 mm 2 m/s 728 mmHg 37%

Depois de amanhã, 22 Janeiro, Sexta-feira

Tempo Temperatura Precipitação Vento Pressão Humidade
00:00 +9°C° 0.1 mm 3 m/s 729 mmHg 45%
01:00 +8°C° 0.1 mm 4 m/s 729 mmHg 53%
02:00 +7°C° 0.1 mm 4 m/s 730 mmHg 61%
03:00 +5°C° 0.3 mm 7 m/s 731 mmHg 65%
04:00 +3°C° 0.3 mm 10 m/s 732 mmHg 68%
05:00 0°C° 0.3 mm 13 m/s 734 mmHg 71%
06:00 -2°C° 0.8 mm 10 m/s 736 mmHg 76%
07:00 -4°C° 0.8 mm 8 m/s 738 mmHg 81%
08:00 -5°C° 0.8 mm 5 m/s 740 mmHg 87%
09:00 -5°C° 1.2 mm 5 m/s 741 mmHg 88%
10:00 -4°C° 1.2 mm 4 m/s 742 mmHg 89%
11:00 -4°C° 1.2 mm 4 m/s 743 mmHg 90%
12:00 -4°C° 0.4 mm 4 m/s 744 mmHg 89%
13:00 -4°C° 0.4 mm 4 m/s 744 mmHg 88%
14:00 -3°C° 0.4 mm 4 m/s 744 mmHg 88%
15:00 -4°C° 0.3 mm 4 m/s 745 mmHg 89%
16:00 -4°C° 0.3 mm 4 m/s 745 mmHg 90%
17:00 -4°C° 0.3 mm 4 m/s 746 mmHg 91%
18:00 -5°C° 0.3 mm 3 m/s 747 mmHg 91%
19:00 -4°C° 0.3 mm 2 m/s 748 mmHg 91%
20:00 -2°C° 0.3 mm 1 m/s 749 mmHg 91%
21:00 -2°C° 0.2 mm 1 m/s 749 mmHg 92%
22:00 -2°C° 0.2 mm 1 m/s 750 mmHg 93%
23:00 -3°C° 0.2 mm 1 m/s 750 mmHg 94%

23 Janeiro, Sábado

Tempo Temperatura Precipitação Vento Pressão Humidade
00:00 -3°C° 0.2 mm 1 m/s 751 mmHg 94%
01:00 -5°C° 0.2 mm 2 m/s 751 mmHg 94%
02:00 -5°C° 0.2 mm 2 m/s 752 mmHg 94%
03:00 -6°C° 0.1 mm 2 m/s 752 mmHg 92%
04:00 -7°C° 0.1 mm 2 m/s 752 mmHg 90%
05:00 -6°C° 0.1 mm 1 m/s 752 mmHg 89%
06:00 -7°C° 0 mm 1 m/s 752 mmHg 86%
07:00 -7°C° 0 mm 1 m/s 752 mmHg 84%
08:00 -8°C° 0 mm 2 m/s 753 mmHg 82%
09:00 -6°C° 0 mm 1 m/s 752 mmHg 77%
10:00 -4°C° 0 mm 1 m/s 752 mmHg 71%
11:00 -2°C° 0 mm 1 m/s 752 mmHg 66%
12:00 -2°C° 0 mm 1 m/s 752 mmHg 65%
13:00 -1°C° 0 mm 1 m/s 751 mmHg 63%
14:00 0°C° 0 mm 1 m/s 751 mmHg 62%
15:00 -1°C° 0 mm 1 m/s 751 mmHg 65%
16:00 -1°C° 0 mm 1 m/s 751 mmHg 69%
17:00 -2°C° 0 mm 1 m/s 751 mmHg 72%
18:00 -3°C° 0 mm 1 m/s 751 mmHg 72%
19:00 -3°C° 0 mm 1 m/s 751 mmHg 71%
20:00 -4°C° 0 mm 1 m/s 751 mmHg 70%
21:00 -4°C° 0 mm 1 m/s 751 mmHg 69%
22:00 -4°C° 0 mm 1 m/s 751 mmHg 67%
23:00 -6°C° 0 mm 2 m/s 751 mmHg 66%

24 Janeiro, Domingo

Tempo Temperatura Precipitação Vento Pressão Humidade
00:00 -6°C° 0 mm 2 m/s 751 mmHg 67%
01:00 -6°C° 0 mm 2 m/s 750 mmHg 67%
02:00 -7°C° 0 mm 3 m/s 750 mmHg 68%
03:00 -7°C° 0 mm 3 m/s 749 mmHg 69%
04:00 -8°C° 0 mm 4 m/s 749 mmHg 70%
05:00 -7°C° 0 mm 5 m/s 748 mmHg 71%
06:00 -7°C° 0 mm 5 m/s 748 mmHg 70%
07:00 -7°C° 0 mm 5 m/s 748 mmHg 69%
08:00 -7°C° 0 mm 5 m/s 748 mmHg 68%
09:00 -6°C° 0 mm 5 m/s 748 mmHg 64%
10:00 -5°C° 0 mm 5 m/s 747 mmHg 60%
11:00 -2°C° 0 mm 5 m/s 747 mmHg 56%
12:00 -2°C° 0 mm 5 m/s 746 mmHg 55%
13:00 -1°C° 0 mm 5 m/s 745 mmHg 53%
14:00 0°C° 0 mm 5 m/s 744 mmHg 52%
15:00 -1°C° 0 mm 4 m/s 744 mmHg 55%
16:00 -1°C° 0 mm 3 m/s 744 mmHg 59%
17:00 -1°C° 0 mm 2 m/s 744 mmHg 63%
18:00 -2°C° 0 mm 2 m/s 744 mmHg 63%
19:00 -3°C° 0 mm 2 m/s 744 mmHg 64%
20:00 -4°C° 0 mm 2 m/s 744 mmHg 64%
21:00 -4°C° 0 mm 2 m/s 744 mmHg 64%
22:00 -4°C° 0 mm 2 m/s 743 mmHg 64%
23:00 -4°C° 0 mm 2 m/s 743 mmHg 63%

25 Janeiro, Segunda-feira

Tempo Temperatura Precipitação Vento Pressão Humidade
00:00 -5°C° 0 mm 2 m/s 743 mmHg 64%
01:00 -5°C° 0 mm 2 m/s 743 mmHg 65%
02:00 -5°C° 0 mm 2 m/s 742 mmHg 66%
03:00 -5°C° 0 mm 2 m/s 742 mmHg 66%
04:00 -5°C° 0 mm 2 m/s 742 mmHg 66%
05:00 -5°C° 0 mm 2 m/s 742 mmHg 66%
06:00 -5°C° 0 mm 2 m/s 742 mmHg 66%
07:00 -5°C° 0 mm 2 m/s 742 mmHg 66%
08:00 -5°C° 0 mm 2 m/s 742 mmHg 65%
09:00 -4°C° 0 mm 3 m/s 742 mmHg 63%
10:00 -2°C° 0 mm 3 m/s 742 mmHg 60%
11:00 -1°C° 0 mm 3 m/s 741 mmHg 57%
12:00 0°C° 0 mm 3 m/s 741 mmHg 56%
13:00 +1°C° 0 mm 3 m/s 741 mmHg 55%
14:00 +3°C° 0 mm 2 m/s 740 mmHg 54%
15:00 +2°C° 0 mm 2 m/s 741 mmHg 57%
16:00 +1°C° 0 mm 2 m/s 741 mmHg 60%
17:00 +2°C° 0 mm 1 m/s 741 mmHg 64%
18:00 +1°C° 0 mm 1 m/s 741 mmHg 64%
19:00 0°C° 0 mm 1 m/s 742 mmHg 64%
20:00 0°C° 0 mm 1 m/s 742 mmHg 64%
21:00 0°C° 0 mm 1 m/s 742 mmHg 64%
22:00 -2°C° 0 mm 2 m/s 742 mmHg 63%
23:00 -2°C° 0 mm 2 m/s 742 mmHg 63%
Mostrar mais

Necessitamos do seu Consentimento

A Meteoprog e os seus Fornecedores de Serviços podem armazenar e aceder a dados pessoais como cookies, identificadores do dispositivo ou outras tecnologias semelhantes existentes no seu dispositivo e processar estes dados para personalizar conteúdos e anúncios, assim como funcionalidades nas redes sociais e análise de tráfego.

  • Armazenar e/ou aceder a informações no seu dispositivo

    Os cookies, identificadores do dispositivo ou outras informações podem ser armazenados ou acedidos no seu dispositivo, para os fins acima indicados.

  • Anúncios e conteúdos personalizados, medição de anúncios e conteúdos, dados sobre o público-alvo e desenvolvimento de produtos

    Os anúncios e os conteúdos podem ser personalizados com base num perfil. Podem ser adicionados dados adicionais para uma maior personalização dos anúncios e dos conteúdos. A eficácia dos anúncios e dos conteúdos pode ser medida. Podem ser obtidas informações sobre o público que visualizou os anúncios e os conteúdos. Estes dados podem ser usados para desenvolver ou melhorar sistemas, softwares ou a experiência do utilizador.

Ao clicar em "Eu concordo”, permitirá o uso de cookies, identificadores do dispositivo e web beacons mencionados ou outras tecnologias semelhantes. As configurações do navegador do seu dispositivo podem ser alteradas.

Para certos fins, podem ser invocados interesses legítimos ao invés de consentimento. Pode ler mais informação sobre este assunto na nossa Política de Privacidade e Cookies.